This demonstration page uses our WeatherBlox Daily Observations layout. Learn more.

Left ArrowRight Arrow

40.97296, -117.73568

Hourly Observations for August 14, 2020

Temp ( °F °C ) Dew Point ( °F °C ) Humidity (%) Winds ( mph kmh ) Pressure ( in mb ) Visibility ( mi km ) Precip ( " mm )
12:56 am 00:56 Hazy 73 22.8 28 -2.2 19 19 VRB 3 6 29.97 1015 6 10 0.00 0.00
1:56 am 01:56 Clear 73 22.8 29 -1.7 19 19 VRB 3 6 29.97 1015 8 13 0.00 0.00
2:56 am 02:56 Clear 61 16.1 29 -1.7 30 30 Calm 30.00 1016 8 13 0.00 0.00
3:56 am 03:56 Clear 60 15.6 24 -4.4 25 25 W 5 7 30.00 1016 10 16 0.00 0.00
4:56 am 04:56 Clear 61 16.1 25 -3.9 25 25 W 10 17 30.01 1016 10 16 0.00 0.00
5:56 am 05:56 Clear 54 12.2 27 -2.8 35 35 SSW 7 11 30.05 1018 10 16 0.00 0.00
6:56 am 06:56 Sunny 57 13.9 30 -1.1 36 36 E 7 11 30.08 1019 10 16 0.00 0.00
7:56 am 07:56 Sunny 66 18.9 28 -2.2 24 24 Calm 30.08 1019 10 16 0.00 0.00
8:56 am 08:56 Sunny 76 24.4 27 -2.8 16 16 ENE 7 11 30.07 1018 10 16 0.00 0.00
9:56 am 09:56 Sunny 81 27.2 27 -2.8 14 14 NE 8 13 30.07 1018 10 16 0.00 0.00
10:56 am 10:56 Sunny 85 29.4 25 -3.9 11 11 Calm 30.05 1018 10 16 0.00 0.00
11:56 am 11:56 Sunny 89 31.7 23 -5 9 9 VRB 5 7 30.03 1017 10 16 0.00 0.00
12:56 pm 12:56 Mostly Sunny 92 33.3 26 -3.3 9 9 Calm 30.01 1016 10 16 0.00 0.00
1:56 pm 13:56 Sunny 94 34.4 32 0 11 11 WNW 9 15 29.98 1015 10 16 0.00 0.00
2:56 pm 14:56 Partly Cloudy 97 36.1 33 0.6 10 10 WSW 12 19 29.98 1015 10 16 0.00 0.00
3:56 pm 15:56 Sunny 94 34.4 32 0 11 11 WSW 10 17 29.98 1015 10 16 0.00 0.00
4:56 pm 16:56 Sunny 93 33.9 32 0 11 11 W 6 9 29.97 1015 10 16 0.00 0.00
5:56 pm 17:56 Mostly Sunny 93 33.9 33 0.6 12 12 WSW 5 7 29.97 1015 10 16 0.00 0.00
6:56 pm 18:56 Sunny 91 32.8 34 1.1 13 13 WSW 5 7 29.96 1015 10 16 0.00 0.00
7:56 pm 19:56 Clear 85 29.4 36 2.2 17 17 WSW 6 9 29.96 1015 10 16 0.00 0.00
8:56 pm 20:56 Clear 80 26.7 35 1.7 20 20 Calm 29.97 1015 10 16 0.00 0.00
9:56 pm 21:56 Clear 74 23.3 37 2.8 26 26 SSE 3 6 29.98 1015 10 16 0.00 0.00
10:56 pm 22:56 Clear 73 22.8 37 2.8 27 27 Calm 29.98 1015 10 16 0.00 0.00
11:56 pm 23:56 Clear 70 21.1 37 2.8 30 30 ENE 5 7 29.98 1015 10 16 0.00 0.00

Powered by AerisWeather